Weather History for Cape Newenham, AK

Change the Weather History Date:

Wednesday, December 12, 2012

  Actual Average Record
Temperature  
Mean Temperature 34 °F -  
Max Temperature 37 °F 24 °F 41 °F (2000)
Min Temperature 31 °F 16 °F 0 °F (1996)
Degree Days  
Heating Degree Days 31    
Moisture  
Dew Point -    
Average Humidity    
Maximum Humidity    
Minimum Humidity    
Precipitation  
Precipitation 0.00 in - - ()
Sea Level Pressure  
Sea Level Pressure 29.43 in    
Wind  
Wind Speed 18 mph (SW)    
Max Wind Speed 25 mph    
Max Gust Speed 46 mph    
Visibility 9 miles    
Events Fog , Rain    
Averages and records for this station are not official NWS values.
T = Trace of Precipitation, MM = Missing Value Source: NWS Daily Summary

Daily Weather History Graph

Daily Weather History Graph

Search for Another Location

Airport:

Trip Planner

Search our weather history database for the weather conditions in past years. The results will help you decide how hot, cold, wet, or windy it might be!

Date:

Astronomy

Dec. 12, 2012 Rise Set
Actual Time 10:30 AM AKST 4:53 PM AKST
Civil Twilight 9:37 AM AKST 5:46 PM AKST
Nautical Twilight 8:44 AM AKST 6:40 PM AKST
Astronomical Twilight 7:54 AM AKST 7:29 PM AKST
Moon 9:43 AM AKST (12/12) 4:48 PM AKST (12/12)
Length of Visible Light 8h 08m
Length of Day
6h 22m
Waning Crescent, 0% of the Moon is Illuminated
Dec 12
Waning Crescent
Dec 12
New
Dec 19
First Quarter
Dec 28
Full
Jan 4
Last Quarter

Hourly Weather History & Observations

Time (AKST) Temp. Windchill Dew Point Humidity Pressure Visibility Wind Dir Wind Speed Gust Speed Precip Events Conditions
12:14 AM 37.4 °F 25.9 °F - N/A% 29.38 in 1.2 mi SSW 25.3 mph 34.5 mph N/A Rain Light Rain Showers
12:55 AM 35.8 °F 26.5 °F - N/A% 29.38 in 1.0 mi SW 15.0 mph 31.1 mph N/A Fog , Rain Light Rain Showers
1:14 AM 35.6 °F 24.8 °F - N/A% 29.37 in 1.5 mi SSW 19.6 mph 27.6 mph N/A   Heavy Drizzle
1:55 AM 35.6 °F 24.2 °F - N/A% 29.36 in 1.0 mi SSW 21.9 mph 40.3 mph N/A Fog , Rain Light Rain Showers
2:14 AM 33.8 °F 23.2 °F - N/A% 29.40 in 0.8 mi SW 17.3 mph 29.9 mph N/A Fog , Rain Light Rain Showers
2:54 AM 33.8 °F 23.9 °F - N/A% 29.39 in 2.5 mi SSW 15.0 mph 34.5 mph N/A   Light Drizzle
2:55 AM 33.6 °F 24.1 °F - N/A% 29.39 in 4.0 mi SW 13.8 mph 34.5 mph N/A   Light Drizzle
3:14 AM 33.8 °F 23.9 °F - N/A% 29.39 in 10.0 mi SSW 15.0 mph 28.8 mph N/A   Mostly Cloudy
3:34 AM 35.6 °F 24.5 °F - N/A% 29.39 in 10.0 mi SW 20.7 mph 32.2 mph N/A   Overcast
3:54 AM 35.6 °F 25.5 °F - N/A% 29.39 in 10.0 mi SW 17.3 mph 32.2 mph N/A   Overcast
3:55 AM 35.6 °F 24.8 °F - N/A% 29.38 in 10.0 mi SW 19.6 mph 32.2 mph N/A   Overcast
4:14 AM 35.6 °F 24.2 °F - N/A% 29.38 in 10.0 mi SSW 21.9 mph 35.7 mph N/A   Overcast
4:34 AM 35.6 °F 25.9 °F - N/A% 29.38 in 10.0 mi SSW 16.1 mph 31.1 mph N/A   Overcast
4:55 AM 36.0 °F 25.3 °F - N/A% 29.37 in 10.0 mi SW 19.6 mph 31.1 mph N/A   Overcast
5:55 AM 35.8 °F 25.4 °F - N/A% 29.36 in 7.0 mi SW 18.4 mph 44.9 mph N/A   Overcast
6:34 AM 35.6 °F 24.0 °F - N/A% 29.35 in 10.0 mi SSW 23.0 mph 38.0 mph N/A   Overcast
6:55 AM 34.7 °F 24.7 °F - N/A% 29.36 in 8.0 mi WSW 16.1 mph 32.2 mph N/A   Overcast
7:34 AM 33.8 °F 23.2 °F - N/A% 29.37 in 8.0 mi SSW 17.3 mph 34.5 mph N/A   Overcast
7:55 AM 33.4 °F 24.8 °F - N/A% 29.38 in 8.0 mi SW 11.5 mph 35.7 mph N/A   Mostly Cloudy
8:14 AM 33.8 °F 23.9 °F - N/A% 29.38 in 10.0 mi SSW 15.0 mph 25.3 mph N/A   Overcast
8:54 AM 33.8 °F 25.3 °F - N/A% 29.39 in 10.0 mi SW 11.5 mph 27.6 mph N/A   Overcast
8:55 AM 33.3 °F 24.1 °F - N/A% 29.39 in 10.0 mi SW 12.7 mph 27.6 mph N/A   Overcast
9:34 AM 33.8 °F 24.3 °F - N/A% 29.40 in 10.0 mi SSW 13.8 mph 34.5 mph N/A   Overcast
9:54 AM 33.8 °F 24.3 °F - N/A% 29.40 in 10.0 mi SSW 13.8 mph 31.1 mph N/A   Overcast
9:55 AM 33.1 °F 22.6 °F - N/A% 29.40 in 10.0 mi SW 16.1 mph 31.1 mph N/A   Overcast
10:54 AM 33.8 °F 22.8 °F - N/A% 29.43 in 10.0 mi SSW 18.4 mph 39.1 mph N/A   Mostly Cloudy
10:55 AM 32.9 °F 22.4 °F - N/A% 29.43 in 10.0 mi SSW 16.1 mph 33.4 mph N/A   Mostly Cloudy
11:14 AM 33.8 °F 23.5 °F - N/A% 29.44 in 10.0 mi SSW 16.1 mph 34.5 mph N/A   Mostly Cloudy
11:34 AM 32.0 °F 22.5 °F - N/A% 29.45 in 10.0 mi SSW 12.7 mph 41.4 mph N/A   Mostly Cloudy
11:55 AM 32.5 °F 21.5 °F - N/A% 29.45 in 9.0 mi South 17.3 mph 29.9 mph N/A   Mostly Cloudy
12:34 PM 32.0 °F 21.6 °F - N/A% 29.46 in 10.0 mi SSW 15.0 mph 41.4 mph N/A   Mostly Cloudy
12:54 PM 32.0 °F 20.5 °F - N/A% 29.46 in 10.0 mi SSW 18.4 mph 32.2 mph N/A   Mostly Cloudy
12:55 PM 32.5 °F 20.2 °F - N/A% 29.45 in 10.0 mi SSW 21.9 mph 32.2 mph N/A   Mostly Cloudy
1:55 PM 32.7 °F 22.1 °F - N/A% 29.47 in 10.0 mi SW 16.1 mph 36.8 mph N/A   Mostly Cloudy
2:34 PM 32.0 °F 19.5 °F - N/A% 29.47 in 10.0 mi SSW 21.9 mph 34.5 mph N/A   Mostly Cloudy
2:55 PM 32.9 °F 21.0 °F - N/A% 29.45 in 10.0 mi SSW 20.7 mph 34.5 mph N/A   Mostly Cloudy
3:34 PM 32.0 °F 20.1 °F - N/A% 29.45 in 10.0 mi SW 19.6 mph 35.7 mph N/A   Overcast
3:55 PM 32.5 °F 19.9 °F - N/A% 29.45 in 10.0 mi SSW 23.0 mph 35.7 mph N/A   Overcast
4:55 PM 31.8 °F 21.0 °F - N/A% 29.46 in 10.0 mi SW 16.1 mph 36.8 mph N/A   Mostly Cloudy
5:34 PM 32.0 °F 20.1 °F - N/A% 29.46 in 10.0 mi SSW 19.6 mph 36.8 mph N/A   Mostly Cloudy
5:55 PM 32.4 °F 20.0 °F - N/A% 29.46 in 10.0 mi SSW 21.9 mph 41.4 mph N/A   Mostly Cloudy
6:14 PM 32.0 °F 21.2 °F - N/A% 29.46 in 10.0 mi SSW 16.1 mph 32.2 mph N/A   Overcast
6:55 PM 31.8 °F 21.4 °F - N/A% 29.47 in 10.0 mi SW 15.0 mph 31.1 mph N/A   Overcast
7:14 PM 32.0 °F 21.2 °F - N/A% 29.47 in 10.0 mi SSW 16.1 mph 33.4 mph N/A   Overcast
7:34 PM 32.0 °F 20.8 °F - N/A% 29.47 in 10.0 mi SSW 17.3 mph 34.5 mph N/A   Mostly Cloudy
7:55 PM 31.5 °F 20.1 °F - N/A% 29.47 in 10.0 mi SSW 17.3 mph 31.1 mph N/A   Mostly Cloudy
8:14 PM 32.0 °F 20.5 °F - N/A% 29.48 in 10.0 mi SW 18.4 mph 29.9 mph N/A   Mostly Cloudy
8:54 PM 32.0 °F 20.8 °F - N/A% 29.48 in 10.0 mi SW 17.3 mph 33.4 mph N/A   Mostly Cloudy
8:55 PM 31.6 °F 21.2 °F - N/A% 29.49 in 10.0 mi SSW 15.0 mph 33.4 mph N/A   Mostly Cloudy
9:55 PM 31.8 °F 20.2 °F - N/A% 29.49 in 10.0 mi SSW 18.4 mph 32.2 mph N/A   Overcast
10:14 PM 32.0 °F 19.8 °F - N/A% 29.50 in 10.0 mi WSW 20.7 mph 46.0 mph N/A Rain Light Rain Showers
10:34 PM 32.0 °F 20.1 °F - N/A% 29.50 in 10.0 mi WSW 19.6 mph 38.0 mph N/A   Mostly Cloudy
10:55 PM 32.2 °F 21.1 °F - N/A% 29.51 in 10.0 mi WSW 17.3 mph 38.0 mph N/A   Mostly Cloudy
11:34 PM 32.0 °F 21.6 °F - N/A% 29.51 in 10.0 mi SSW 15.0 mph 27.6 mph N/A   Mostly Cloudy
11:54 PM 32.0 °F 22.1 °F - N/A% 29.52 in 10.0 mi SW 13.8 mph 24.2 mph N/A   Mostly Cloudy
11:55 PM 31.8 °F 21.8 °F - N/A% 29.52 in 10.0 mi SSW 13.8 mph 24.2 mph N/A   Mostly Cloudy